This is the latest recevied weather packets stored in our database for station/object KC4KQE. If no packets are shown the sender has not sent any weather packets the latest 10 day(s).
| Time | Temp. | Humidity | Pressure | Rain* | Wind** | Luminosity | Snow |
|---|---|---|---|---|---|---|---|
| 1777920856 | 25.56° C | 30% | 1012.8 hPa | 0 mm | - | 645 W/m² | - |
| 1777920556 | 26.11° C | 30% | 1013 hPa | 0 mm | - | 461 W/m² | - |
| 1777920256 | 25.56° C | 30% | 1013.1 hPa | 0 mm | - | 478 W/m² | - |
| 1777919956 | 25.56° C | 30% | 1013 hPa | 0 mm | - | 452 W/m² | - |
| 1777919657 | 25° C | 30% | 1013.1 hPa | 0 mm | - | 429 W/m² | - |
| 1777919356 | 25.56° C | 29% | 1012.9 hPa | 0 mm | - | 392 W/m² | - |
| 1777919056 | 25.56° C | 29% | 1013 hPa | 0 mm | - | 424 W/m² | - |
| 1777918756 | 25° C | 30% | 1013.1 hPa | 0 mm | - | 371 W/m² | - |
| 1777918456 | 25° C | 30% | 1012.9 hPa | 0 mm | - | 352 W/m² | - |
| 1777918157 | 25° C | 30% | 1012.9 hPa | 0 mm | - | 350 W/m² | - |
| 1777917856 | 25.56° C | 29% | 1012.8 hPa | 0 mm | - | 387 W/m² | - |
| 1777917556 | 25° C | 30% | 1013 hPa | 0 mm | - | 397 W/m² | - |
| 1777917256 | 25° C | 29% | 1013 hPa | 0 mm | - | 422 W/m² | - |
| 1777916956 | 25° C | 31% | 1013.2 hPa | 0 mm | - | 439 W/m² | - |
| 1777916656 | 25° C | 30% | 1013.1 hPa | 0 mm | - | 399 W/m² | - |
| 1777916356 | 25.56° C | 28% | 1013.2 hPa | 0 mm | - | 371 W/m² | - |
| 1777916056 | 25.56° C | 29% | 1013.3 hPa | 0 mm | - | 441 W/m² | - |
| 1777915756 | 25.56° C | 25% | 1013.4 hPa | 0 mm | - | 619 W/m² | - |
| 1777915456 | 25.56° C | 28% | 1013.6 hPa | 0 mm | - | 548 W/m² | - |
| 1777915156 | 25° C | 30% | 1013.7 hPa | 0 mm | - | 519 W/m² | - |
| 1777914856 | 25° C | 31% | 1013.5 hPa | 0 mm | - | 520 W/m² | - |
| 1777914556 | 25° C | 31% | 1013.6 hPa | 0 mm | - | 510 W/m² | - |
| 1777914256 | 25.56° C | 30% | 1013.6 hPa | 0 mm | - | 446 W/m² | - |
| 1777913956 | 25.56° C | 31% | 1013.4 hPa | 0 mm | - | 473 W/m² | - |
| 1777913656 | 25° C | 31% | 1013.3 hPa | 0 mm | - | 668 W/m² | - |
* Rain latest hour (hover to see other rain measurements)
** Current wind speed in m/s (hover to see current wind gust speed)